Back to catalog

SL-16 DEB

AliveLEO
NORAD 22456·DEBRIS·🇷🇺 Russia

Launched Dec 25, 1992 from Baikonur Cosmodrome

Loading…

Next Passes (next 24 hours)

TLE

FreshSource: Space-Track

Epoch: Sep 14, 2026, 12:54 UTC

1 22456U 92093EV  26257.53801911  .00010408  00000-0  15886-2 0  9995
2 22456  71.2253 283.3095 0045260 169.3723 344.5424 14.73308395727970

Track SL-16 DEB in real time with AllMySat

Download on the App Store